User: anonymous   Login
Location: Newark
(48.5667°N, 7.8167°E)
Time: 02:24:08
(UTC+00:00)
Language:

SO-50 - Orbit

View from above orbital plane
View from above orbital plane
View from above satellite
View from above satellite

Ground track
Ground track

The orbit data is extracted from the following two-line orbital elements,

1 27607U 02058C   21208.41750330  .00000037  00000-0  25868-4 0  9996
2 27607  64.5536 216.1367 0045490   8.0386 352.1435 14.75768805   404
Epoch (UTC): 27 July 2021 10:01:12
Eccentricity: 0.0045490
inclination: 64.5536°
perigee height: 611 km
apogee height: 674 km
right ascension of ascending node: 216.1367°
argument of perigee: 8.0386°
revolutions per day: 14.75768805
mean anomaly at epoch: 352.1435°
orbit number at epoch: 40

The dashed part of the orbit path shows where the satellite is in the earth's shadow,  

DLR